METEOR 2-11 DEB, 40317

Orbit data source: Space-Track

METEOR 2-11 DEB, 40317 is space debris in LEO originally from a launch on Thu, 05 Jul 1984 UTC launched from the Plesetsk Missile And Space Complex (PKMTR). Debris objects in space refer to the collection of defunct objects orbiting the Earth. Examples of debris include non-operational satellites, rocket bodies, and fragments generated from explosions, collisions, or faulty payload assembly.

Loading next visibility...
Identifier
40317, 1984-072C
Orbit
LEO
Country
Flag of CISCIS
Related business
Manufacturer
Unknown
Mission
Spacecraft
Bus & Motor
Unknown
Mass
Unknown
Launch date (UTC)
1984-07-05 (42 years ago)
Launch vehicle
Unknown
Launch site
Plesetsk Missile And Space Complex (PKMTR)
Object type
Payload
Rocket body
Debris
Shape & HBR
Unknown shape, 0.1 m
Radar Cross Section
Small (<0.1 m²)

Expand to show TLE details & history
Last TLE update: 1 week ago

TLE from 1 week ago
0 METEOR 2-11 DEB
1 40317U 84072C   26203.10030422  .00000004  00000-0 -74934-5 0  9998
2 40317  82.5196 337.3298 0008792 324.1008  35.9569 13.99510395590924
Epoch: 2026-07-22T02:24Z
TLE epoch observation values (Epoch: 2026-07-22T02:24:26.284Z)
Latitude
-0.00003°
Longitude
1.35979°
Altitude
893.238 km
Speed
7.408 km/s
True Right ascension
22h 29m 19s
True Declination
0° 00' 00"
Sunlit
Object was in full shadow at epoch
Visualization orbit readout
Latitude
Unknown
Longitude
Unknown
Altitude
Unknown
Speed
Unknown
Apparent Right ascension
Unknown
Apparent Declination
Unknown
Sunlit
N/A
Visualization observer readout
Local Sidereal Time
07:24:26
Azimuth
Unknown
Elevation
Unknown
Doppler factor
Unknown
Orbital elements
Apogee altitude
899.015 km
Perigee altitude
886.23 km
Semi-major axis
7,270.76 km
Eccentricity
0.00088
Inclination
82.5196°
RAAN
337.3298°
Arg. of periapsis
324.1008°
True anomaly
36.01611°
Mean anomaly
35.9569°
Eccentric anomaly
35.9865°
Mean motion
3.50085 °/min
Orbital period
102.83 mins
BSTAR
-0.0000074934
Loading maneuver chart data...
Computing Atmospheric mass density...
Loading historical data...
Loading historical data...
Loading historical data...
Loading historical data...
Loading historical data...
Loading historical data...
Loading historical data...

Documentation

Showing up to 5 results
|